Time,TemperatureF,DewpointF,PressureIn,WindDirection,WindDirectionDegrees,WindSpeedMPH,WindSpeedGustMPH,Humidity,HourlyPrecipIn,Conditions,Clouds,dailyrainin,SoftwareType,DateUTC
2013-12-18 00:00:00,8.3,2.3,29.96,NNW,338,0.7,0.9,76,0.00,,,0.00,WUHU216HW,2013-12-18 05:00:00,
2013-12-18 00:01:00,8.3,2.3,29.96,NNW,338,0.4,0.9,76,0.00,,,0.00,WUHU216HW,2013-12-18 05:01:00,
2013-12-18 00:06:00,8.3,2.3,29.96,NNW,338,0.3,0.9,76,0.00,,,0.00,WUHU216HW,2013-12-18 05:06:00,
2013-12-18 00:11:00,8.3,2.3,29.96,NNW,338,0.4,0.9,76,0.00,,,0.00,WUHU216HW,2013-12-18 05:11:00,
2013-12-18 00:16:00,8.3,2.3,29.96,NNW,338,0.4,0.9,76,0.00,,,0.00,WUHU216HW,2013-12-18 05:16:00,
2013-12-18 00:21:00,8.3,2.3,29.96,NNW,338,0.0,0.4,76,0.00,,,0.00,WUHU216HW,2013-12-18 05:21:00,
2013-12-18 00:26:00,8.3,2.3,29.96,NNW,338,0.0,0.2,76,0.00,,,0.00,WUHU216HW,2013-12-18 05:26:00,
2013-12-18 00:31:00,8.5,2.4,29.95,NNW,338,0.0,0.0,76,0.00,,,0.00,WUHU216HW,2013-12-18 05:31:00,
2013-12-18 00:36:00,8.6,2.6,29.95,NNW,338,0.0,0.0,76,0.00,,,0.00,WUHU216HW,2013-12-18 05:36:00,
2013-12-18 00:41:00,8.8,2.8,29.94,NNW,338,0.4,0.4,76,0.00,,,0.00,WUHU216HW,2013-12-18 05:41:00,
2013-12-18 00:46:00,8.8,2.8,29.94,NNW,338,0.0,0.4,76,0.00,,,0.00,WUHU216HW,2013-12-18 05:46:00,
2013-12-18 00:51:00,8.8,2.8,29.94,NNW,338,0.0,0.0,76,0.00,,,0.00,WUHU216HW,2013-12-18 05:51:00,
2013-12-18 00:56:00,8.6,2.6,29.94,NNW,338,0.0,0.0,76,0.00,,,0.00,WUHU216HW,2013-12-18 05:56:00,
2013-12-18 01:01:00,8.8,2.8,29.95,NNW,338,0.3,0.4,76,0.00,,,0.00,WUHU216HW,2013-12-18 06:01:00,
2013-12-18 01:06:00,8.8,2.8,29.95,NNW,338,0.0,0.4,76,0.00,,,0.00,WUHU216HW,2013-12-18 06:06:00,
2013-12-18 01:11:00,9.0,3.0,29.94,NNW,338,0.3,0.4,76,0.00,,,0.00,WUHU216HW,2013-12-18 06:11:00,
2013-12-18 01:16:00,8.8,2.8,29.94,NNW,338,0.0,0.4,76,0.00,,,0.00,WUHU216HW,2013-12-18 06:16:00,
2013-12-18 01:21:00,8.8,2.8,29.94,NNW,338,0.4,0.7,76,0.00,,,0.00,WUHU216HW,2013-12-18 06:21:00,
2013-12-18 01:26:00,8.8,2.8,29.94,NNW,338,0.0,0.7,76,0.00,,,0.00,WUHU216HW,2013-12-18 06:26:00,
2013-12-18 01:31:00,8.8,2.8,29.94,NNW,338,0.0,0.0,76,0.00,,,0.00,WUHU216HW,2013-12-18 06:31:00,
2013-12-18 01:36:00,9.0,3.0,29.94,NNW,338,0.0,0.0,76,0.00,,,0.00,WUHU216HW,2013-12-18 06:36:00,
2013-12-18 01:41:00,9.0,3.0,29.94,NNW,338,0.0,0.0,76,0.00,,,0.00,WUHU216HW,2013-12-18 06:41:00,
2013-12-18 01:46:00,9.2,3.2,29.94,NNW,338,0.0,0.0,76,0.00,,,0.00,WUHU216HW,2013-12-18 06:46:00,
2013-12-18 01:51:00,9.0,3.0,29.94,NNW,338,0.2,0.2,76,0.00,,,0.00,WUHU216HW,2013-12-18 06:51:00,
2013-12-18 01:56:00,9.0,3.0,29.94,NNW,338,0.4,0.4,76,0.00,,,0.00,WUHU216HW,2013-12-18 06:56:00,
2013-12-18 02:01:00,9.0,3.0,29.94,NNW,338,0.0,0.4,76,0.00,,,0.00,WUHU216HW,2013-12-18 07:01:00,
2013-12-18 02:06:00,9.0,3.0,29.94,NNW,338,0.0,0.0,76,0.00,,,0.00,WUHU216HW,2013-12-18 07:06:00,
2013-12-18 02:11:00,9.2,3.2,29.94,NNW,338,0.0,0.0,76,0.00,,,0.00,WUHU216HW,2013-12-18 07:11:00,
2013-12-18 02:16:00,9.0,3.0,29.94,NNW,338,0.0,0.0,76,0.00,,,0.00,WUHU216HW,2013-12-18 07:16:00,
2013-12-18 02:21:00,9.0,3.0,29.94,NNW,338,0.0,0.0,76,0.00,,,0.00,WUHU216HW,2013-12-18 07:21:00,
2013-12-18 02:26:00,9.2,3.2,29.94,NNW,338,0.0,0.0,76,0.00,,,0.00,WUHU216HW,2013-12-18 07:26:00,
2013-12-18 02:31:00,9.2,3.2,29.94,NNW,338,0.0,0.0,76,0.00,,,0.00,WUHU216HW,2013-12-18 07:31:00,
2013-12-18 02:36:00,9.4,3.2,29.94,NNW,338,0.0,0.2,76,0.00,,,0.00,WUHU216HW,2013-12-18 07:36:00,
2013-12-18 02:41:00,9.4,3.2,29.94,NNW,338,0.0,0.2,76,0.00,,,0.00,WUHU216HW,2013-12-18 07:41:00,
2013-12-18 02:46:00,9.2,3.2,29.94,NNW,338,0.3,0.4,76,0.00,,,0.00,WUHU216HW,2013-12-18 07:46:00,
2013-12-18 02:51:00,9.0,3.0,29.94,NNW,338,0.0,0.4,76,0.00,,,0.00,WUHU216HW,2013-12-18 07:51:00,
2013-12-18 02:56:00,9.0,3.0,29.94,NNW,338,0.0,0.2,76,0.00,,,0.00,WUHU216HW,2013-12-18 07:56:00,
2013-12-18 03:01:00,9.0,3.0,29.94,NNW,338,0.4,0.4,76,0.00,,,0.00,WUHU216HW,2013-12-18 08:01:00,
2013-12-18 03:06:00,9.0,3.0,29.95,NNW,338,0.0,0.4,76,0.00,,,0.00,WUHU216HW,2013-12-18 08:06:00,
2013-12-18 03:11:00,9.0,3.0,29.95,NNW,338,0.4,0.4,76,0.00,,,0.00,WUHU216HW,2013-12-18 08:11:00,
2013-12-18 03:16:00,9.0,3.2,29.95,NNW,338,0.2,0.4,77,0.00,,,0.00,WUHU216HW,2013-12-18 08:16:00,
2013-12-18 03:21:00,9.0,3.0,29.95,NNW,338,0.0,0.4,76,0.00,,,0.00,WUHU216HW,2013-12-18 08:21:00,
2013-12-18 03:26:00,9.0,3.0,29.94,NNW,338,0.0,0.4,76,0.00,,,0.00,WUHU216HW,2013-12-18 08:26:00,
2013-12-18 03:31:00,9.0,3.0,29.94,NNW,338,0.0,0.0,76,0.00,,,0.00,WUHU216HW,2013-12-18 08:31:00,
2013-12-18 03:36:00,9.2,3.2,29.94,NNW,338,0.0,0.0,76,0.00,,,0.00,WUHU216HW,2013-12-18 08:36:00,
2013-12-18 03:41:00,9.4,3.2,29.93,NNW,338,0.0,0.2,76,0.00,,,0.00,WUHU216HW,2013-12-18 08:41:00,
2013-12-18 03:46:00,9.5,3.4,29.93,NNW,338,0.0,0.2,76,0.00,,,0.00,WUHU216HW,2013-12-18 08:46:00,
2013-12-18 03:51:00,9.5,3.4,29.93,NNW,338,0.0,0.0,76,0.00,,,0.00,WUHU216HW,2013-12-18 08:51:00,
2013-12-18 03:56:00,9.4,3.2,29.93,NNW,338,0.0,0.0,76,0.00,,,0.00,WUHU216HW,2013-12-18 08:56:00,
2013-12-18 04:01:00,9.4,3.2,29.94,NNW,338,0.0,0.2,76,0.00,,,0.00,WUHU216HW,2013-12-18 09:01:00,
2013-12-18 04:06:00,9.4,3.2,29.93,NNW,338,0.0,0.2,76,0.00,,,0.00,WUHU216HW,2013-12-18 09:06:00,
2013-12-18 04:11:00,9.5,3.4,29.93,NNW,338,0.4,0.4,76,0.00,,,0.00,WUHU216HW,2013-12-18 09:11:00,
2013-12-18 04:16:00,9.4,3.6,29.93,NNW,338,0.4,0.4,77,0.00,,,0.00,WUHU216HW,2013-12-18 09:16:00,
2013-12-18 04:21:00,9.4,3.2,29.93,NNW,338,0.2,0.4,76,0.00,,,0.00,WUHU216HW,2013-12-18 09:21:00,
2013-12-18 04:26:00,9.2,3.2,29.93,NNW,338,0.0,0.4,76,0.00,,,0.00,WUHU216HW,2013-12-18 09:26:00,
2013-12-18 04:31:00,9.0,3.0,29.93,NNW,338,0.0,0.0,76,0.00,,,0.00,WUHU216HW,2013-12-18 09:31:00,
2013-12-18 04:36:00,9.0,3.0,29.93,NNW,338,0.0,0.0,76,0.00,,,0.00,WUHU216HW,2013-12-18 09:36:00,
2013-12-18 04:41:00,9.0,3.0,29.93,NNW,338,0.0,0.0,76,0.00,,,0.00,WUHU216HW,2013-12-18 09:41:00,
2013-12-18 04:46:00,9.0,3.0,29.94,NNW,338,0.0,0.2,76,0.00,,,0.00,WUHU216HW,2013-12-18 09:46:00,
2013-12-18 04:51:00,9.0,3.0,29.94,NNW,338,0.0,0.2,76,0.00,,,0.00,WUHU216HW,2013-12-18 09:51:00,
2013-12-18 04:56:00,9.2,3.4,29.93,NNW,338,0.2,0.4,77,0.00,,,0.00,WUHU216HW,2013-12-18 09:56:00,
2013-12-18 05:01:00,9.0,3.0,29.93,NNW,338,0.4,0.4,76,0.00,,,0.00,WUHU216HW,2013-12-18 10:01:00,
2013-12-18 05:06:00,9.0,3.2,29.93,NNW,338,0.0,0.4,77,0.00,,,0.00,WUHU216HW,2013-12-18 10:06:00,
2013-12-18 05:11:00,9.0,3.2,29.93,NNW,338,0.0,0.2,77,0.00,,,0.00,WUHU216HW,2013-12-18 10:11:00,
2013-12-18 05:16:00,9.0,3.2,29.93,NNW,338,0.0,0.0,77,0.00,,,0.00,WUHU216HW,2013-12-18 10:16:00,
2013-12-18 05:21:00,9.0,3.2,29.93,NNW,338,0.4,0.4,77,0.00,,,0.00,WUHU216HW,2013-12-18 10:21:00,
2013-12-18 05:26:00,9.0,3.2,29.93,NNW,338,0.0,0.4,77,0.00,,,0.00,WUHU216HW,2013-12-18 10:26:00,
2013-12-18 05:31:00,9.0,3.2,29.93,NNW,338,0.0,0.4,77,0.00,,,0.00,WUHU216HW,2013-12-18 10:31:00,
2013-12-18 05:36:00,9.0,3.2,29.93,NNW,338,0.0,0.4,77,0.00,,,0.00,WUHU216HW,2013-12-18 10:36:00,
2013-12-18 05:41:00,8.8,3.1,29.93,NNW,338,0.0,0.0,77,0.00,,,0.00,WUHU216HW,2013-12-18 10:41:00,
2013-12-18 05:46:00,8.6,2.9,29.93,NNW,338,0.0,0.0,77,0.00,,,0.00,WUHU216HW,2013-12-18 10:46:00,
2013-12-18 05:51:00,8.6,2.9,29.93,NNW,338,0.0,0.0,77,0.00,,,0.00,WUHU216HW,2013-12-18 10:51:00,
2013-12-18 05:56:00,8.6,2.9,29.93,NNW,338,0.0,0.0,77,0.00,,,0.00,WUHU216HW,2013-12-18 10:56:00,
2013-12-18 06:01:00,8.6,2.9,29.93,NNW,338,0.0,0.0,77,0.00,,,0.00,WUHU216HW,2013-12-18 11:01:00,
2013-12-18 06:06:00,8.6,2.9,29.93,NNW,338,0.0,0.2,77,0.00,,,0.00,WUHU216HW,2013-12-18 11:06:00,
2013-12-18 06:11:00,8.8,3.1,29.93,NNW,338,0.0,0.2,77,0.00,,,0.00,WUHU216HW,2013-12-18 11:11:00,
2013-12-18 06:14:00,8.6,2.9,29.93,NNW,338,0.0,0.0,77,0.00,,,0.00,WUHU216HW,2013-12-18 11:14:00,
2013-12-18 06:19:00,8.8,3.1,29.93,NNW,338,0.0,0.0,77,0.00,,,0.00,WUHU216HW,2013-12-18 11:19:00,
2013-12-18 06:24:00,9.0,3.2,29.94,NNW,338,0.0,0.0,77,0.00,,,0.00,WUHU216HW,2013-12-18 11:24:00,
2013-12-18 06:29:00,9.0,3.2,29.93,NNW,338,0.0,0.0,77,0.00,,,0.00,WUHU216HW,2013-12-18 11:29:00,
2013-12-18 06:34:00,9.0,3.2,29.93,NNW,338,0.0,0.0,77,0.00,,,0.00,WUHU216HW,2013-12-18 11:34:00,
2013-12-18 06:39:00,9.2,3.2,29.93,NNW,338,0.0,0.0,76,0.00,,,0.00,WUHU216HW,2013-12-18 11:39:00,
2013-12-18 06:44:00,9.2,3.4,29.93,NNW,338,0.0,0.0,77,0.00,,,0.00,WUHU216HW,2013-12-18 11:44:00,
2013-12-18 06:49:00,9.2,3.2,29.93,NNW,338,0.0,0.2,76,0.00,,,0.00,WUHU216HW,2013-12-18 11:49:00,
2013-12-18 06:54:00,9.2,3.2,29.93,NNW,338,0.0,0.2,76,0.00,,,0.00,WUHU216HW,2013-12-18 11:54:00,
2013-12-18 06:59:00,9.2,3.2,29.94,NNW,338,0.4,0.4,76,0.00,,,0.00,WUHU216HW,2013-12-18 11:59:00,
2013-12-18 07:04:00,9.0,3.0,29.94,NNW,338,0.4,0.4,76,0.00,,,0.00,WUHU216HW,2013-12-18 12:04:00,
2013-12-18 07:09:00,9.0,3.2,29.94,NNW,338,0.2,0.4,77,0.00,,,0.00,WUHU216HW,2013-12-18 12:09:00,
2013-12-18 07:14:00,9.0,3.2,29.94,NNW,338,0.4,0.4,77,0.00,,,0.00,WUHU216HW,2013-12-18 12:14:00,
2013-12-18 07:19:00,8.8,3.1,29.94,NNW,338,0.4,0.4,77,0.00,,,0.00,WUHU216HW,2013-12-18 12:19:00,
2013-12-18 07:24:00,8.6,2.9,29.94,NNW,338,1.4,1.6,77,0.00,,,0.00,WUHU216HW,2013-12-18 12:24:00,
2013-12-18 07:29:00,8.3,2.5,29.94,NNW,338,0.4,1.6,77,0.00,,,0.00,WUHU216HW,2013-12-18 12:29:00,
2013-12-18 07:34:00,8.3,2.5,29.94,NNW,338,0.2,1.1,77,0.00,,,0.00,WUHU216HW,2013-12-18 12:34:00,
2013-12-18 07:38:00,8.3,2.5,29.94,NNW,338,0.4,1.1,77,0.00,,,0.00,WUHU216HW,2013-12-18 12:38:00,
2013-12-18 07:43:00,8.3,2.5,29.94,NNW,338,1.6,1.6,77,0.00,,,0.00,WUHU216HW,2013-12-18 12:43:00,
2013-12-18 07:48:00,8.1,2.3,29.94,NNW,338,0.4,2.9,77,0.00,,,0.00,WUHU216HW,2013-12-18 12:48:00,
2013-12-18 07:53:00,8.1,2.3,29.94,NNW,338,0.9,2.9,77,0.00,,,0.00,WUHU216HW,2013-12-18 12:53:00,
2013-12-18 07:58:00,8.1,2.3,29.94,NNW,338,1.6,1.6,77,0.00,,,0.00,WUHU216HW,2013-12-18 12:58:00,
2013-12-18 08:03:00,8.1,2.3,29.94,NNW,338,0.6,1.6,77,0.00,,,0.00,WUHU216HW,2013-12-18 13:03:00,
2013-12-18 08:08:00,8.1,2.3,29.94,NNW,338,0.9,1.1,77,0.00,,,0.00,WUHU216HW,2013-12-18 13:08:00,
2013-12-18 08:13:00,8.3,2.5,29.94,NNW,338,1.0,1.8,77,0.00,,,0.00,WUHU216HW,2013-12-18 13:13:00,
2013-12-18 08:18:00,8.3,2.5,29.94,NNW,338,1.6,1.8,77,0.00,,,0.00,WUHU216HW,2013-12-18 13:18:00,
2013-12-18 08:23:00,8.3,2.5,29.94,NNW,338,0.4,1.6,77,0.00,,,0.00,WUHU216HW,2013-12-18 13:23:00,
2013-12-18 08:28:00,8.3,2.5,29.94,NNW,338,1.1,1.1,77,0.00,,,0.00,WUHU216HW,2013-12-18 13:28:00,
2013-12-18 08:33:00,8.3,2.5,29.94,NNW,338,0.4,1.3,77,0.00,,,0.00,WUHU216HW,2013-12-18 13:33:00,
2013-12-18 08:38:00,8.5,2.7,29.94,NNW,338,0.9,1.6,77,0.00,,,0.00,WUHU216HW,2013-12-18 13:38:00,
2013-12-18 08:43:00,8.6,2.9,29.94,NNW,338,0.7,1.6,77,0.00,,,0.00,WUHU216HW,2013-12-18 13:43:00,
2013-12-18 08:48:00,8.8,3.1,29.94,NNW,338,0.7,1.3,77,0.00,,,0.00,WUHU216HW,2013-12-18 13:48:00,
2013-12-18 08:53:00,9.0,3.2,29.94,NNW,338,0.9,1.3,77,0.00,,,0.00,WUHU216HW,2013-12-18 13:53:00,
2013-12-18 08:58:00,9.0,3.2,29.94,NNW,338,0.6,1.1,77,0.00,,,0.00,WUHU216HW,2013-12-18 13:58:00,
2013-12-18 09:03:00,9.2,3.4,29.94,NNW,338,0.6,1.1,77,0.00,,,0.00,WUHU216HW,2013-12-18 14:03:00,
2013-12-18 09:08:00,9.4,3.6,29.94,NNW,338,1.1,1.3,77,0.00,,,0.00,WUHU216HW,2013-12-18 14:08:00,
2013-12-18 09:13:00,9.4,3.6,29.94,NNW,338,2.5,2.5,77,0.00,,,0.00,WUHU216HW,2013-12-18 14:13:00,
2013-12-18 09:18:00,9.5,3.7,29.94,NNW,338,0.0,2.5,77,0.00,,,0.00,WUHU216HW,2013-12-18 14:18:00,
2013-12-18 09:23:00,9.7,3.6,29.94,NNW,338,0.0,0.0,76,0.00,,,0.00,WUHU216HW,2013-12-18 14:23:00,
2013-12-18 09:28:00,10.1,4.0,29.94,NNW,338,0.0,0.0,76,0.00,,,0.00,WUHU216HW,2013-12-18 14:28:00,
2013-12-18 09:33:00,10.4,4.2,29.94,NNW,338,0.0,0.0,76,0.00,,,0.00,WUHU216HW,2013-12-18 14:33:00,
2013-12-18 09:38:00,10.8,4.6,29.94,NNW,338,0.4,0.4,76,0.00,,,0.00,WUHU216HW,2013-12-18 14:38:00,
2013-12-18 09:43:00,11.0,4.8,29.94,NNW,338,0.0,0.4,76,0.00,,,0.00,WUHU216HW,2013-12-18 14:43:00,
2013-12-18 09:48:00,11.2,5.0,29.94,NNW,338,0.0,0.0,76,0.00,,,0.00,WUHU216HW,2013-12-18 14:48:00,
2013-12-18 09:53:00,11.2,5.0,29.94,NNW,338,0.2,0.2,76,0.00,,,0.00,WUHU216HW,2013-12-18 14:53:00,
2013-12-18 09:58:00,11.3,5.1,29.94,NNW,338,0.4,0.4,76,0.00,,,0.00,WUHU216HW,2013-12-18 14:58:00,
2013-12-18 10:03:00,11.7,5.5,29.93,NNW,338,0.7,0.7,76,0.00,,,0.00,WUHU216HW,2013-12-18 15:03:00,
2013-12-18 10:08:00,12.2,5.8,29.93,NNW,338,0.7,0.7,75,0.00,,,0.00,WUHU216HW,2013-12-18 15:08:00,
2013-12-18 10:13:00,13.0,6.8,29.93,NNW,338,0.7,0.9,76,0.00,,,0.00,WUHU216HW,2013-12-18 15:13:00,
2013-12-18 10:18:00,14.0,7.8,29.93,NNW,338,0.3,0.9,76,0.00,,,0.00,WUHU216HW,2013-12-18 15:18:00,
2013-12-18 10:23:00,14.8,8.6,29.93,NNW,338,0.6,0.7,76,0.00,,,0.00,WUHU216HW,2013-12-18 15:23:00,
2013-12-18 10:28:00,15.5,9.3,29.93,NNW,338,0.8,0.9,76,0.00,,,0.00,WUHU216HW,2013-12-18 15:28:00,
2013-12-18 10:33:00,15.5,8.9,29.92,NNW,338,0.4,1.1,75,0.00,,,0.00,WUHU216HW,2013-12-18 15:33:00,
2013-12-18 10:38:00,16.2,9.3,29.92,NNW,338,0.2,1.1,74,0.00,,,0.00,WUHU216HW,2013-12-18 15:38:00,
2013-12-18 10:43:00,16.9,10.0,29.91,NNW,338,0.4,0.7,74,0.00,,,0.00,WUHU216HW,2013-12-18 15:43:00,
2013-12-18 10:48:00,17.8,10.9,29.91,NNW,338,0.4,0.4,74,0.00,,,0.00,WUHU216HW,2013-12-18 15:48:00,
2013-12-18 10:53:00,18.4,11.3,29.91,NNW,338,0.9,0.9,74,0.00,,,0.00,WUHU216HW,2013-12-18 15:53:00,
2013-12-18 10:58:00,18.5,11.5,29.91,NNW,338,0.0,0.9,74,0.00,,,0.00,WUHU216HW,2013-12-18 15:58:00,
2013-12-18 11:03:00,18.5,11.3,29.91,NNW,338,0.4,0.7,73,0.00,,,0.00,WUHU216HW,2013-12-18 16:03:00,
2013-12-18 11:08:00,18.7,11.7,29.90,NNW,338,0.4,0.7,74,0.00,,,0.00,WUHU216HW,2013-12-18 16:08:00,
2013-12-18 11:13:00,19.3,12.3,29.90,NNW,338,0.4,0.9,74,0.00,,,0.00,WUHU216HW,2013-12-18 16:13:00,
2013-12-18 11:18:00,19.4,12.1,29.90,NNW,338,0.4,0.9,73,0.00,,,0.00,WUHU216HW,2013-12-18 16:18:00,
2013-12-18 11:23:00,19.4,11.8,29.90,NNW,338,1.1,1.1,72,0.00,,,0.00,WUHU216HW,2013-12-18 16:23:00,
2013-12-18 11:28:00,19.8,12.2,29.90,NNW,338,0.4,1.1,72,0.00,,,0.00,WUHU216HW,2013-12-18 16:28:00,
2013-12-18 11:33:00,19.8,12.2,29.90,NNW,338,0.0,1.1,72,0.00,,,0.00,WUHU216HW,2013-12-18 16:33:00,
2013-12-18 11:38:00,21.8,14.1,29.90,NNW,338,0.4,1.1,72,0.00,,,0.00,WUHU216HW,2013-12-18 16:38:00,
2013-12-18 11:43:00,22.9,14.9,29.90,NNW,338,0.3,0.4,71,0.00,,,0.00,WUHU216HW,2013-12-18 16:43:00,
2013-12-18 11:48:00,22.3,13.7,29.90,NNW,338,0.7,0.7,69,0.00,,,0.00,WUHU216HW,2013-12-18 16:48:00,
2013-12-18 11:53:00,21.4,13.4,29.90,NNW,338,0.2,0.9,71,0.00,,,0.00,WUHU216HW,2013-12-18 16:53:00,
2013-12-18 11:58:00,21.4,13.4,29.90,NNW,338,0.0,0.9,71,0.00,,,0.00,WUHU216HW,2013-12-18 16:58:00,
2013-12-18 12:03:00,22.3,14.3,29.90,NNW,338,0.0,0.0,71,0.00,,,0.00,WUHU216HW,2013-12-18 17:03:00,
2013-12-18 12:08:00,23.8,15.4,29.90,NNW,338,0.3,0.4,70,0.00,,,0.00,WUHU216HW,2013-12-18 17:08:00,
2013-12-18 12:13:00,24.8,16.4,29.90,NNW,338,0.2,0.4,70,0.00,,,0.00,WUHU216HW,2013-12-18 17:13:00,
2013-12-18 12:18:00,25.4,17.3,29.90,NNW,338,0.0,0.2,71,0.00,,,0.00,WUHU216HW,2013-12-18 17:18:00,
2013-12-18 12:23:00,25.0,16.2,29.90,NNW,338,0.0,0.0,69,0.00,,,0.00,WUHU216HW,2013-12-18 17:23:00,
2013-12-18 12:28:00,23.8,15.0,29.89,NNW,338,0.6,0.9,69,0.00,,,0.00,WUHU216HW,2013-12-18 17:28:00,
2013-12-18 12:33:00,23.4,14.8,29.89,NNW,338,0.4,0.9,69,0.00,,,0.00,WUHU216HW,2013-12-18 17:33:00,
2013-12-18 12:38:00,24.5,15.8,29.89,NNW,338,0.4,0.7,69,0.00,,,0.00,WUHU216HW,2013-12-18 17:38:00,
2013-12-18 12:43:00,25.6,17.1,29.89,NNW,338,0.9,1.1,70,0.00,,,0.00,WUHU216HW,2013-12-18 17:43:00,
2013-12-18 12:48:00,26.8,18.4,29.89,NNW,338,0.7,1.1,70,0.00,,,0.00,WUHU216HW,2013-12-18 17:48:00,
2013-12-18 12:53:00,27.4,18.9,29.88,NNW,338,1.1,1.1,70,0.00,,,0.00,WUHU216HW,2013-12-18 17:53:00,
2013-12-18 12:58:00,27.7,19.3,29.88,NNW,338,0.4,1.1,70,0.00,,,0.00,WUHU216HW,2013-12-18 17:58:00,
2013-12-18 13:03:00,27.7,18.5,29.88,NNW,338,0.4,1.1,68,0.00,,,0.00,WUHU216HW,2013-12-18 18:03:00,
2013-12-18 13:08:00,27.0,18.2,29.88,NNW,338,1.1,1.1,69,0.00,,,0.00,WUHU216HW,2013-12-18 18:08:00,
2013-12-18 13:13:00,26.8,18.0,29.88,NNW,338,0.6,1.1,69,0.00,,,0.00,WUHU216HW,2013-12-18 18:13:00,
2013-12-18 13:18:00,27.0,18.2,29.88,NNW,338,1.1,1.1,69,0.00,,,0.00,WUHU216HW,2013-12-18 18:18:00,
2013-12-18 13:23:00,27.9,19.1,29.88,NNW,338,0.2,1.1,69,0.00,,,0.00,WUHU216HW,2013-12-18 18:23:00,
2013-12-18 13:28:00,27.7,18.2,29.88,NNW,338,0.4,1.1,67,0.00,,,0.00,WUHU216HW,2013-12-18 18:28:00,
2013-12-18 13:33:00,27.9,18.7,29.88,NNW,338,0.7,0.7,68,0.00,,,0.00,WUHU216HW,2013-12-18 18:33:00,
2013-12-18 13:38:00,29.0,20.1,29.88,NNW,338,0.3,0.7,69,0.00,,,0.00,WUHU216HW,2013-12-18 18:38:00,
2013-12-18 13:43:00,29.5,20.3,29.88,NNW,338,0.0,0.9,68,0.00,,,0.00,WUHU216HW,2013-12-18 18:43:00,
2013-12-18 13:48:00,29.9,20.9,29.88,NNW,338,0.4,0.9,69,0.00,,,0.00,WUHU216HW,2013-12-18 18:48:00,
2013-12-18 13:53:00,29.9,20.9,29.89,NNW,338,0.0,0.4,69,0.00,,,0.00,WUHU216HW,2013-12-18 18:53:00,
2013-12-18 13:58:00,28.4,18.9,29.89,NNW,338,0.9,0.9,67,0.00,,,0.00,WUHU216HW,2013-12-18 18:58:00,
2013-12-18 14:03:00,27.2,18.4,29.89,NNW,338,0.7,0.9,69,0.00,,,0.00,WUHU216HW,2013-12-18 19:03:00,
2013-12-18 14:08:00,27.5,19.1,29.89,NNW,338,0.8,1.1,70,0.00,,,0.00,WUHU216HW,2013-12-18 19:08:00,
2013-12-18 14:13:00,28.4,20.0,29.89,NNW,338,0.0,1.1,70,0.00,,,0.00,WUHU216HW,2013-12-18 19:13:00,
2013-12-18 14:18:00,28.6,20.2,29.89,NNW,338,1.5,2.5,70,0.00,,,0.00,WUHU216HW,2013-12-18 19:18:00,
2013-12-18 14:23:00,28.3,19.4,29.89,NNW,338,2.7,3.8,69,0.00,,,0.00,WUHU216HW,2013-12-18 19:23:00,
2013-12-18 14:28:00,28.4,19.6,29.90,NNW,338,0.9,3.8,69,0.00,,,0.00,WUHU216HW,2013-12-18 19:28:00,
2013-12-18 14:33:00,28.4,19.6,29.90,NNW,338,1.3,2.2,69,0.00,,,0.00,WUHU216HW,2013-12-18 19:33:00,
2013-12-18 14:38:00,28.3,19.4,29.90,NNW,338,2.2,2.2,69,0.00,,,0.00,WUHU216HW,2013-12-18 19:38:00,
2013-12-18 14:43:00,27.9,19.1,29.90,NNW,338,2.8,3.8,69,0.00,,,0.00,WUHU216HW,2013-12-18 19:43:00,
2013-12-18 14:48:00,27.7,18.9,29.89,NNW,338,1.8,3.8,69,0.00,,,0.00,WUHU216HW,2013-12-18 19:48:00,
2013-12-18 14:53:00,27.4,18.5,29.90,NNW,338,1.0,2.5,69,0.00,,,0.00,WUHU216HW,2013-12-18 19:53:00,
2013-12-18 14:58:00,27.0,18.5,29.90,NNW,338,1.2,2.5,70,0.00,,,0.00,WUHU216HW,2013-12-18 19:58:00,
2013-12-18 15:03:00,27.0,18.2,29.90,NNW,338,3.3,3.4,69,0.00,,,0.00,WUHU216HW,2013-12-18 20:03:00,
2013-12-18 15:08:00,27.0,18.2,29.90,NNW,338,1.6,3.4,69,0.00,,,0.00,WUHU216HW,2013-12-18 20:08:00,
2013-12-18 15:13:00,26.5,17.6,29.90,NNW,338,2.2,4.9,69,0.00,,,0.00,WUHU216HW,2013-12-18 20:13:00,
2013-12-18 15:18:00,26.3,17.8,29.91,NNW,338,2.7,4.9,70,0.00,,,0.00,WUHU216HW,2013-12-18 20:18:00,
2013-12-18 15:23:00,25.9,17.5,29.91,NNW,338,2.0,3.4,70,0.00,,,0.00,WUHU216HW,2013-12-18 20:23:00,
2013-12-18 15:28:00,25.9,17.5,29.91,NNW,338,4.9,4.9,70,0.00,,,0.00,WUHU216HW,2013-12-18 20:28:00,
2013-12-18 15:33:00,25.7,17.3,29.91,NNW,338,2.8,4.9,70,0.00,,,0.00,WUHU216HW,2013-12-18 20:33:00,
2013-12-18 15:38:00,25.6,17.1,29.91,NNW,338,1.6,3.4,70,0.00,,,0.00,WUHU216HW,2013-12-18 20:38:00,
2013-12-18 15:43:00,25.6,17.1,29.91,NNW,338,0.4,1.6,70,0.00,,,0.00,WUHU216HW,2013-12-18 20:43:00,
2013-12-18 15:48:00,25.4,16.9,29.91,NNW,338,0.4,1.3,70,0.00,,,0.00,WUHU216HW,2013-12-18 20:48:00,
2013-12-18 15:53:00,25.2,16.7,29.91,NNW,338,0.6,1.3,70,0.00,,,0.00,WUHU216HW,2013-12-18 20:53:00,
2013-12-18 15:58:00,24.8,16.4,29.91,NNW,338,0.0,0.9,70,0.00,,,0.00,WUHU216HW,2013-12-18 20:58:00,
2013-12-18 16:03:00,24.8,16.4,29.91,NNW,338,0.4,0.7,70,0.00,,,0.00,WUHU216HW,2013-12-18 21:03:00,
2013-12-18 16:08:00,24.7,16.2,29.91,NNW,338,0.0,1.1,70,0.00,,,0.00,WUHU216HW,2013-12-18 21:08:00,
2013-12-18 16:13:00,24.3,15.9,29.91,NNW,338,0.6,1.1,70,0.00,,,0.00,WUHU216HW,2013-12-18 21:13:00,
2013-12-18 16:18:00,24.1,16.0,29.92,NNW,338,0.4,1.1,71,0.00,,,0.00,WUHU216HW,2013-12-18 21:18:00,
2013-12-18 16:23:00,23.8,15.8,29.92,NNW,338,0.9,1.1,71,0.00,,,0.00,WUHU216HW,2013-12-18 21:23:00,
2013-12-18 16:28:00,23.8,15.8,29.92,NNW,338,2.0,2.0,71,0.00,,,0.00,WUHU216HW,2013-12-18 21:28:00,
2013-12-18 16:33:00,23.8,16.0,29.92,NNW,338,0.0,2.0,72,0.00,,,0.00,WUHU216HW,2013-12-18 21:33:00,
2013-12-18 16:38:00,23.8,16.0,29.92,NNW,338,0.4,0.4,72,0.00,,,0.00,WUHU216HW,2013-12-18 21:38:00,
2013-12-18 16:43:00,23.8,16.0,29.92,NNW,338,0.0,0.4,72,0.00,,,0.00,WUHU216HW,2013-12-18 21:43:00,
2013-12-18 16:48:00,23.6,15.8,29.92,NNW,338,0.4,0.7,72,0.00,,,0.00,WUHU216HW,2013-12-18 21:48:00,
2013-12-18 16:53:00,23.6,15.8,29.93,NNW,338,1.1,1.1,72,0.00,,,0.00,WUHU216HW,2013-12-18 21:53:00,
2013-12-18 16:58:00,23.6,15.8,29.93,NNW,338,0.4,1.1,72,0.00,,,0.00,WUHU216HW,2013-12-18 21:58:00,
2013-12-18 17:03:00,23.4,15.7,29.93,NNW,338,0.7,0.7,72,0.00,,,0.00,WUHU216HW,2013-12-18 22:03:00,
2013-12-18 17:08:00,23.4,15.7,29.93,NNW,338,0.6,0.9,72,0.00,,,0.00,WUHU216HW,2013-12-18 22:08:00,
2013-12-18 17:13:00,23.4,15.7,29.93,NNW,338,0.7,0.9,72,0.00,,,0.00,WUHU216HW,2013-12-18 22:13:00,
2013-12-18 17:18:00,23.4,15.7,29.94,NNW,338,1.3,1.3,72,0.00,,,0.00,WUHU216HW,2013-12-18 22:18:00,
2013-12-18 17:23:00,23.2,15.6,29.94,NNW,338,1.1,1.8,72,0.00,,,0.00,WUHU216HW,2013-12-18 22:23:00,
2013-12-18 17:28:00,23.4,15.7,29.94,NNW,338,1.1,1.8,72,0.00,,,0.00,WUHU216HW,2013-12-18 22:28:00,
2013-12-18 17:33:00,23.2,15.6,29.94,NNW,338,2.5,2.5,72,0.00,,,0.00,WUHU216HW,2013-12-18 22:33:00,
2013-12-18 17:38:00,23.0,15.7,29.94,NNW,338,1.8,2.7,73,0.00,,,0.00,WUHU216HW,2013-12-18 22:38:00,
2013-12-18 17:43:00,22.7,15.3,29.94,NNW,338,1.1,2.7,73,0.00,,,0.00,WUHU216HW,2013-12-18 22:43:00,
2013-12-18 17:48:00,22.3,14.9,29.94,NNW,338,0.4,1.6,73,0.00,,,0.00,WUHU216HW,2013-12-18 22:48:00,
2013-12-18 17:53:00,22.1,14.8,29.94,NNW,338,1.3,1.3,73,0.00,,,0.00,WUHU216HW,2013-12-18 22:53:00,
2013-12-18 17:58:00,22.0,15.0,29.94,NNW,338,1.8,1.8,74,0.00,,,0.00,WUHU216HW,2013-12-18 22:58:00,
2013-12-18 18:03:00,22.0,15.0,29.94,NNW,338,3.6,3.6,74,0.00,,,0.00,WUHU216HW,2013-12-18 23:03:00,
2013-12-18 18:08:00,22.0,15.0,29.95,NNW,338,2.0,3.6,74,0.00,,,0.00,WUHU216HW,2013-12-18 23:08:00,
2013-12-18 18:13:00,22.0,15.0,29.95,NNW,338,2.6,2.7,74,0.00,,,0.00,WUHU216HW,2013-12-18 23:13:00,
2013-12-18 18:18:00,22.0,15.0,29.95,NNW,338,1.8,2.7,74,0.00,,,0.00,WUHU216HW,2013-12-18 23:18:00,
2013-12-18 18:23:00,22.0,15.0,29.95,NNW,338,1.8,3.6,74,0.00,,,0.00,WUHU216HW,2013-12-18 23:23:00,
2013-12-18 18:28:00,22.0,15.0,29.96,NNW,338,1.2,3.6,74,0.00,,,0.00,WUHU216HW,2013-12-18 23:28:00,
2013-12-18 18:33:00,22.0,15.0,29.95,NNW,338,1.0,1.8,74,0.00,,,0.00,WUHU216HW,2013-12-18 23:33:00,
2013-12-18 18:37:00,22.0,15.0,29.96,NNW,338,1.9,2.7,74,0.00,,,0.00,WUHU216HW,2013-12-18 23:37:00,
2013-12-18 18:42:00,22.0,15.0,29.96,NNW,338,1.6,2.7,74,0.00,,,0.00,WUHU216HW,2013-12-18 23:42:00,
2013-12-18 18:47:00,22.0,15.0,29.96,NNW,338,0.9,2.7,74,0.00,,,0.00,WUHU216HW,2013-12-18 23:47:00,
2013-12-18 18:52:00,22.1,15.1,29.96,NNW,338,0.9,2.5,74,0.00,,,0.00,WUHU216HW,2013-12-18 23:52:00,
2013-12-18 18:57:00,22.3,15.3,29.96,NNW,338,0.0,2.5,74,0.00,,,0.00,WUHU216HW,2013-12-18 23:57:00,
2013-12-18 19:02:00,22.3,15.3,29.96,NNW,338,0.4,1.1,74,0.00,,,0.00,WUHU216HW,2013-12-19 00:02:00,
2013-12-18 19:07:00,22.5,15.5,29.96,NNW,338,2.3,3.4,74,0.00,,,0.00,WUHU216HW,2013-12-19 00:07:00,
2013-12-18 19:12:00,22.7,15.7,29.96,NNW,338,0.3,3.4,74,0.00,,,0.00,WUHU216HW,2013-12-19 00:12:00,
2013-12-18 19:17:00,22.7,15.7,29.96,NNW,338,1.1,2.2,74,0.00,,,0.00,WUHU216HW,2013-12-19 00:17:00,
2013-12-18 19:22:00,22.7,15.7,29.96,NNW,338,0.9,2.2,74,0.00,,,0.00,WUHU216HW,2013-12-19 00:22:00,
2013-12-18 19:27:00,22.7,15.7,29.96,NNW,338,0.4,1.1,74,0.00,,,0.00,WUHU216HW,2013-12-19 00:27:00,
2013-12-18 19:32:00,22.5,15.5,29.97,NNW,338,0.4,1.1,74,0.00,,,0.00,WUHU216HW,2013-12-19 00:32:00,
2013-12-18 19:37:00,22.5,15.5,29.97,NNW,338,0.6,1.1,74,0.00,,,0.00,WUHU216HW,2013-12-19 00:37:00,
2013-12-18 19:42:00,22.3,15.3,29.96,NNW,338,1.5,1.8,74,0.00,,,0.00,WUHU216HW,2013-12-19 00:42:00,
2013-12-18 19:47:00,22.7,15.7,29.96,NNW,338,2.0,2.5,74,0.00,,,0.00,WUHU216HW,2013-12-19 00:47:00,
2013-12-18 19:52:00,22.7,15.7,29.96,NNW,338,1.6,2.5,74,0.00,,,0.00,WUHU216HW,2013-12-19 00:52:00,
2013-12-18 19:57:00,22.7,15.7,29.96,NNW,338,3.6,3.6,74,0.00,,,0.00,WUHU216HW,2013-12-19 00:57:00,
2013-12-18 20:02:00,22.7,15.7,29.96,NNW,338,1.6,3.6,74,0.00,,,0.00,WUHU216HW,2013-12-19 01:02:00,
2013-12-18 20:07:00,22.5,15.5,29.96,NNW,338,1.6,1.8,74,0.00,,,0.00,WUHU216HW,2013-12-19 01:07:00,
2013-12-18 20:12:00,22.3,15.3,29.96,NNW,338,1.1,2.5,74,0.00,,,0.00,WUHU216HW,2013-12-19 01:12:00,
2013-12-18 20:17:00,22.3,15.3,29.96,NNW,338,1.1,2.5,74,0.00,,,0.00,WUHU216HW,2013-12-19 01:17:00,
2013-12-18 20:22:00,22.3,15.3,29.96,NNW,338,1.6,1.6,74,0.00,,,0.00,WUHU216HW,2013-12-19 01:22:00,
2013-12-18 20:27:00,22.3,15.3,29.96,NNW,338,1.3,2.2,74,0.00,,,0.00,WUHU216HW,2013-12-19 01:27:00,
2013-12-18 20:32:00,22.3,15.3,29.96,NNW,338,1.1,2.2,74,0.00,,,0.00,WUHU216HW,2013-12-19 01:32:00,
2013-12-18 20:37:00,22.3,15.3,29.96,NNW,338,1.3,1.8,74,0.00,,,0.00,WUHU216HW,2013-12-19 01:37:00,
2013-12-18 20:42:00,22.5,15.5,29.96,NNW,338,0.4,1.8,74,0.00,,,0.00,WUHU216HW,2013-12-19 01:42:00,
2013-12-18 20:47:00,22.5,15.5,29.96,NNW,338,1.5,1.8,74,0.00,,,0.00,WUHU216HW,2013-12-19 01:47:00,
2013-12-18 20:52:00,22.7,15.7,29.96,NNW,338,1.1,1.8,74,0.00,,,0.00,WUHU216HW,2013-12-19 01:52:00,
2013-12-18 20:57:00,22.7,15.7,29.96,NNW,338,1.1,2.5,74,0.00,,,0.00,WUHU216HW,2013-12-19 01:57:00,
2013-12-18 21:02:00,22.9,15.9,29.96,NNW,338,1.8,2.5,74,0.00,,,0.00,WUHU216HW,2013-12-19 02:02:00,
2013-12-18 21:07:00,23.0,16.0,29.96,NNW,338,1.0,1.8,74,0.00,,,0.00,WUHU216HW,2013-12-19 02:07:00,
2013-12-18 21:12:00,23.4,16.3,29.96,NNW,338,2.3,3.1,74,0.00,,,0.00,WUHU216HW,2013-12-19 02:12:00,
2013-12-18 21:17:00,23.4,16.3,29.96,NNW,338,3.4,4.0,74,0.00,,,0.00,WUHU216HW,2013-12-19 02:17:00,
2013-12-18 21:22:00,23.8,16.4,29.96,NNW,338,2.9,4.0,73,0.00,,,0.00,WUHU216HW,2013-12-19 02:22:00,
2013-12-18 21:27:00,23.9,16.5,29.96,NNW,338,1.8,2.9,73,0.00,,,0.00,WUHU216HW,2013-12-19 02:27:00,
2013-12-18 21:32:00,24.1,16.7,29.96,NNW,338,2.5,2.7,73,0.00,,,0.00,WUHU216HW,2013-12-19 02:32:00,
2013-12-18 21:37:00,24.1,16.7,29.97,NNW,338,0.8,2.7,73,0.00,,,0.00,WUHU216HW,2013-12-19 02:37:00,
2013-12-18 21:42:00,24.1,16.7,29.97,NNW,338,1.8,2.7,73,0.00,,,0.00,WUHU216HW,2013-12-19 02:42:00,
2013-12-18 21:47:00,24.1,16.7,29.97,NNW,338,2.0,2.7,73,0.00,,,0.00,WUHU216HW,2013-12-19 02:47:00,
2013-12-18 21:52:00,24.1,16.7,29.97,NNW,338,0.4,3.4,73,0.00,,,0.00,WUHU216HW,2013-12-19 02:52:00,
2013-12-18 21:57:00,24.1,16.7,29.97,NNW,338,1.8,3.4,73,0.00,,,0.00,WUHU216HW,2013-12-19 02:57:00,
2013-12-18 22:02:00,24.1,16.7,29.97,NNW,338,1.1,1.8,73,0.00,,,0.00,WUHU216HW,2013-12-19 03:02:00,
2013-12-18 22:07:00,24.1,16.7,29.97,NNW,338,0.6,1.6,73,0.00,,,0.00,WUHU216HW,2013-12-19 03:07:00,
2013-12-18 22:12:00,24.1,16.7,29.97,NNW,338,2.3,2.7,73,0.00,,,0.00,WUHU216HW,2013-12-19 03:12:00,
2013-12-18 22:17:00,24.1,16.7,29.97,NNW,338,2.3,3.4,73,0.00,,,0.00,WUHU216HW,2013-12-19 03:17:00,
2013-12-18 22:22:00,24.3,16.8,29.97,NNW,338,1.8,3.4,73,0.00,,,0.00,WUHU216HW,2013-12-19 03:22:00,
2013-12-18 22:27:00,24.3,16.8,29.97,NNW,338,1.8,2.7,73,0.00,,,0.00,WUHU216HW,2013-12-19 03:27:00,
2013-12-18 22:32:00,24.3,16.8,29.97,NNW,338,1.7,2.7,73,0.00,,,0.00,WUHU216HW,2013-12-19 03:32:00,
2013-12-18 22:37:00,24.3,16.8,29.97,NNW,338,1.8,2.2,73,0.00,,,0.00,WUHU216HW,2013-12-19 03:37:00,
2013-12-18 22:42:00,24.5,17.0,29.97,NNW,338,1.8,2.5,73,0.00,,,0.00,WUHU216HW,2013-12-19 03:42:00,
2013-12-18 22:47:00,24.7,17.2,29.97,NNW,338,0.8,2.5,73,0.00,,,0.00,WUHU216HW,2013-12-19 03:47:00,
2013-12-18 22:52:00,24.7,17.2,29.97,NNW,338,1.6,1.8,73,0.00,,,0.00,WUHU216HW,2013-12-19 03:52:00,
2013-12-18 22:57:00,24.7,17.2,29.97,NNW,338,0.9,1.6,73,0.00,,,0.00,WUHU216HW,2013-12-19 03:57:00,
2013-12-18 23:02:00,24.7,17.2,29.97,NNW,338,0.2,1.1,73,0.00,,,0.00,WUHU216HW,2013-12-19 04:02:00,
2013-12-18 23:07:00,24.7,17.2,29.97,NNW,338,0.2,0.4,73,0.00,,,0.00,WUHU216HW,2013-12-19 04:07:00,
2013-12-18 23:12:00,24.5,17.0,29.97,NNW,338,0.0,0.2,73,0.00,,,0.00,WUHU216HW,2013-12-19 04:12:00,
2013-12-18 23:17:00,24.5,17.0,29.98,NNW,338,0.2,0.2,73,0.00,,,0.00,WUHU216HW,2013-12-19 04:17:00,
2013-12-18 23:22:00,24.1,16.7,29.97,NNW,338,0.0,0.9,73,0.00,,,0.00,WUHU216HW,2013-12-19 04:22:00,
2013-12-18 23:27:00,24.1,16.7,29.97,NNW,338,0.4,0.9,73,0.00,,,0.00,WUHU216HW,2013-12-19 04:27:00,
2013-12-18 23:32:00,24.1,16.7,29.97,NNW,338,0.0,0.4,73,0.00,,,0.00,WUHU216HW,2013-12-19 04:32:00,
2013-12-18 23:37:00,24.1,16.7,29.97,NNW,338,0.9,1.1,73,0.00,,,0.00,WUHU216HW,2013-12-19 04:37:00,
2013-12-18 23:42:00,24.1,16.7,29.97,NNW,338,0.0,1.1,73,0.00,,,0.00,WUHU216HW,2013-12-19 04:42:00,
2013-12-18 23:47:00,24.1,16.7,29.97,NNW,338,0.2,1.1,73,0.00,,,0.00,WUHU216HW,2013-12-19 04:47:00,
2013-12-18 23:52:00,24.3,16.8,29.97,NNW,338,0.4,1.6,73,0.00,,,0.00,WUHU216HW,2013-12-19 04:52:00,
2013-12-18 23:57:00,24.5,17.0,29.97,NNW,338,1.2,1.6,73,0.00,,,0.00,WUHU216HW,2013-12-19 04:57:00,